Simultaneous Nadir Overpasses (SNOs) Predictions

Prediction of SNOs between LANDSAT-8 and NPP Satellite Orbit:

Table of predicted SNOs for the next 14.0 days since TLE Epoch: 2/29/2020
Index Date (LANDSAT-8) Time (LANDSAT-8) Lat,Lon (LANDSAT-8) SZA (LANDSAT-8 ) Date (NPP) Time (NPP) Lat,Lon (NPP) SZA (NPP ) Distance(km) Time Diff (sec)
1 02/29/2020 14:41:46 -70.51, 136.51 101.85 02/29/2020 14:40:35 -70.61, 135.31 101.69 45.57 71
2 02/29/2020 15:31:19 70.08, -56.47 77.73 02/29/2020 15:31:11 70.06, -56.52 77.72 3.05 8
3 02/29/2020 16:20:50 -69.91, 110.93 102.45 02/29/2020 16:21:52 -69.93, 111.00 102.44 3.38 62
4 03/03/2020 06:58:21 -70.13,-108.16 103.24 03/03/2020 06:57:22 -70.13,-108.18 103.22 0.69 59
5 03/03/2020 07:47:48 70.03, 59.34 76.66 03/03/2020 07:48:06 70.01, 59.32 76.64 2.21 18
6 03/03/2020 08:37:28 -69.37,-133.93 103.98 03/03/2020 08:38:37 -69.35,-132.38 104.08 60.70 69
7 03/05/2020 23:14:50 -70.08, 7.65 104.32 03/05/2020 23:14:17 -70.09, 7.67 104.31 0.75 33
8 03/06/2020 00:04:17 69.98, 175.14 75.57 03/06/2020 00:05:01 69.96, 175.16 75.55 1.36 44
9 03/08/2020 14:41:46 70.30, -43.80 74.85 03/08/2020 14:40:34 70.34, -44.27 74.92 18.45 72
10 03/08/2020 15:31:19 -70.03, 123.45 105.42 03/08/2020 15:31:12 -70.04, 123.51 105.41 2.49 7
11 03/08/2020 16:20:46 69.92, -69.06 74.46 03/08/2020 16:21:56 69.92, -69.01 74.45 2.16 70
12 03/11/2020 06:58:16 70.13, 71.83 73.63 03/11/2020 06:57:25 70.14, 71.80 73.66 1.84 51
13 03/11/2020 07:47:46 -70.02,-120.68 106.49 03/11/2020 07:48:06 -69.99,-120.66 106.52 3.25 20
14 03/11/2020 08:37:29 69.02, 45.62 72.56 03/11/2020 08:38:34 69.03, 48.05 72.46 96.52 65
15 03/13/2020 23:14:44 70.11,-172.30 72.56 03/13/2020 23:14:20 70.10,-172.37 72.55 2.82 24
16 03/14/2020 00:04:15 -69.96, -4.89 107.61 03/14/2020 00:05:01 -69.95, -4.83 107.62 2.48 46




NCC Satellite Simultaneous Nadir Overpasses (SNOs) Prediction Service
